Flag for France Weather past 2 weeks in Périgueux, France

Now
46 °F

Overcast.


Feels Like: 44 °F
Forecast: 47 / 58 °F
Wind: 5 mph from West

Location: Bergerac Airport

Current Time: Mar 27, 2015 at 6:29:09 AM

Latest Report: Mar 27, 2015 at 6:00 AM


Visibility: 6 mi

Pressure: 30.21 "Hg

Humidity: 93%

Dew point: 45 °F

Location of PérigueuxLocation

Historic Weather in Périgueux — Graph

°F

Périgueux temperature yesterday

Maximum temperature yesterday: 52 °F (at 12:00 PM)
Minimum temperature yesterday: 28 °F (at 4:30 AM)
Average temperature yesterday: 43 °F

Past Weeks' High & Low Weather Summary

 TemperatureHumidityPressure
High68 °F (Mar 19, 3:30 PM)100% (Mar 13, 11:00 AM)30.24 "Hg (Mar 13, 11:00 AM)
Low28 °F (Mar 15, 5:00 AM)38% (Mar 25, 3:30 PM)29.74 "Hg (Mar 24, 12:30 PM)
Average48 °F79%30.04 "Hg
* Reported Mar 12 5:30 AM — Mar 27 5:30 AM, Périgueux, Weather by CustomWeather, © 2015

Note: Actual official high and low records may vary slightly from our data, if they occured in-between our weather recording intervals... More about our weather records

Advertising

Périgueux weather history for previous 24 hours

 ConditionsComfort  
Time TempWeatherWind HumidityBarometerVisibility
5:30 AM
Fri, Mar 27
48 °FMostly cloudy.5 mph94%30.18 "Hg5 mi
5:00 AM48 °FPassing clouds.6 mph94%30.18 "HgN/A
4:00 AM48 °FOvercast.6 mph87%30.18 "HgN/A
3:30 AM48 °FOvercast.7 mph87%30.18 "HgN/A
3:00 AM48 °FOvercast.9 mph87%30.15 "HgN/A
2:30 AM48 °FOvercast.9 mph87%30.15 "HgN/A
2:00 AM48 °FOvercast.10 mph87%30.15 "HgN/A
1:30 AM48 °FOvercast.10 mph87%30.15 "HgN/A
1:00 AM48 °FOvercast.10 mph87%30.12 "HgN/A
12:30 AM48 °FMostly cloudy.12 mph87%30.12 "HgN/A
12:00 AM48 °FMostly cloudy.12 mph87%30.12 "HgN/A
11:30 PM
Thu, Mar 26
50 °FDrizzle. Overcast.14 mph82%30.09 "HgN/A
11:00 PM50 °FMostly cloudy.15 mph88%30.09 "HgN/A
10:30 PM50 °FDrizzle. Mostly cloudy.14 mph88%30.07 "HgN/A
9:30 PM50 °FDrizzle. Mostly cloudy.10 mph100%30.04 "Hg5 mi
9:00 PM50 °FDrizzle. Low clouds.9 mph100%30.01 "HgN/A
8:30 PM50 °FDrizzle. Fog.5 mph94%30.01 "Hg3 mi
8:00 PM50 °FLow clouds.3 mph88%30.01 "HgN/A
7:30 PM50 °FFog.3 mph88%29.98 "Hg3 mi
7:00 PM50 °FMostly cloudy.3 mph88%29.95 "Hg5 mi
6:30 PM50 °FDrizzle. Fog.6 mph88%29.95 "Hg2 mi
6:00 PM50 °FDrizzle. Overcast.5 mph88%29.95 "Hg4 mi
5:30 PM50 °FOvercast.5 mph88%29.95 "Hg4 mi
5:00 PM50 °FOvercast.7 mph82%29.95 "HgN/A
4:30 PM50 °FOvercast.8 mph82%29.92 "HgN/A
4:00 PM50 °FMostly cloudy.8 mph82%29.95 "HgN/A
3:30 PM50 °FBroken clouds.8 mph82%29.92 "HgN/A
3:00 PM52 °FPartly sunny.8 mph72%29.95 "HgN/A
2:30 PM52 °FOvercast.12 mph67%29.95 "HgN/A
2:00 PM52 °FOvercast.9 mph62%29.95 "HgN/A
1:30 PM52 °FOvercast.9 mph62%29.95 "HgN/A
1:00 PM52 °FMore clouds than sun.10 mph62%29.95 "HgN/A
12:30 PM52 °FOvercast.12 mph58%29.98 "HgN/A
12:00 PM52 °FBroken clouds.9 mph62%29.98 "HgN/A
11:30 AM50 °FClear.9 mph67%29.98 "HgN/A
11:00 AM50 °FBroken clouds.9 mph62%30.01 "HgN/A
10:30 AM48 °FClear.8 mph71%30.01 "HgN/A
10:00 AM46 °FBroken clouds.6 mph76%30.01 "HgN/A
9:30 AM43 °FPartly sunny.No wind87%30.01 "HgN/A
9:00 AM39 °FPartly sunny.3 mph93%30.01 "HgN/A
8:30 AM36 °FOvercast.2 mph93%30.01 "Hg6 mi
8:00 AM34 °FClear.5 mph93%30.01 "Hg5 mi
7:30 AM32 °FClear.3 mph93%30.01 "Hg4 mi
7:00 AM28 °FClear.3 mph100%30.01 "Hg5 mi
6:30 AM28 °FClear.3 mph93%29.98 "HgN/A
6:00 AM28 °FClear.1 mph93%29.98 "Hg4 mi
Weather by CustomWeather, © 2015

See weather overviewHow to use our weather pages